This is the latest recevied weather packets stored in our database for station/object HB9FHL-13. If no packets are shown the sender has not sent any weather packets the latest 10 day(s).
| Time | Temp. | Humidity | Pressure | Rain* | Wind** | Luminosity | Snow |
|---|---|---|---|---|---|---|---|
| 1788298946 | 18.33° C | - | 1024 hPa | 0 mm | - | - | - |
| 1788298645 | 18.33° C | - | 1023.3 hPa | 0 mm | - | - | - |
| 1788298386 | 18.89° C | - | 1024.6 hPa | 0 mm | - | - | - |
| 1788298345 | 18.89° C | - | 1024.6 hPa | 0 mm | - | - | - |
| 1788298088 | 18.33° C | - | 1024.7 hPa | 0 mm | - | - | - |
| 1788298044 | 18.33° C | - | 1024.7 hPa | 0 mm | - | - | - |
| 1788297744 | 18.33° C | - | 1023.7 hPa | 0 mm | - | - | - |
| 1788297443 | 18.89° C | - | 1024 hPa | 0 mm | - | - | - |
| 1788297175 | 18.89° C | - | 1025.1 hPa | 0 mm | - | - | - |
| 1788297143 | 18.89° C | - | 1025.1 hPa | 0 mm | - | - | - |
| 1788296842 | 18.33° C | - | 1023.1 hPa | 0 mm | - | - | - |
| 1788296542 | 18.89° C | - | 1023.2 hPa | 0 mm | - | - | - |
| 1788296238 | 18.89° C | - | 1024.6 hPa | 0 mm | - | - | - |
| 1788295938 | 18.33° C | - | 1025.4 hPa | 0 mm | - | - | - |
| 1788295643 | 18.33° C | - | 1023.1 hPa | 0 mm | - | - | - |
| 1788295337 | 19.44° C | - | 1023.2 hPa | 0 mm | - | - | - |
| 1788295089 | 18.33° C | - | 1025.1 hPa | 0 mm | - | - | - |
| 1788295038 | 18.33° C | - | 1025.1 hPa | 0 mm | - | - | - |
| 1788294736 | 18.33° C | - | 1023.8 hPa | 0 mm | - | - | - |
| 1788294434 | 17.78° C | - | 1022.4 hPa | 0 mm | - | - | - |
| 1788294134 | 18.33° C | - | 1023.1 hPa | 0 mm | - | - | - |
| 1788293833 | 17.78° C | - | 1024.6 hPa | 0 mm | - | - | - |
| 1788293531 | 18.89° C | - | 1023.2 hPa | 0 mm | - | - | - |
| 1788293231 | 18.33° C | - | 1022 hPa | 0 mm | - | - | - |
| 1788292931 | 18.89° C | - | 1024.4 hPa | 0 mm | - | - | - |
* Rain since midnight (hover to see other rain measurements)
** Current wind speed in m/s (hover to see current wind gust speed)